Location: La Coruña
(43.3623°N, 8.4115°W)
Time: 05:24:46
(UTC+01:00)

STARLINK-1122 - Pass Details

Date: 17 January 2020
Orbit: 348 x 351 km, 53.0° (Epoch: 21 February)

Event Time Altitude Azimuth Distance (km) Brightness Sun altitude
Rises 20:06:28 0° 247° (WSW) 2,145 8.2 -18.1°
Reaches altitude 10° 20:08:31 10° 254° (WSW) 1,306 6.8 -18.5°
Maximum altitude 20:11:20 46° 329° (NNW) 478 3.4 -19.0°
Enters shadow 20:11:26 46° 338° (NNW) 481 3.3 -19.0°
